BTK6589 WIII-WAAA

Flight info

Callsign BTK6589
Flight time 2h 1m
Altitude 36998
Route CA T5 BIMAK
Aircraft A20N/M-SDE2E3FGHIRWXY/LB1

Departure

Time 2026-04-21 10:20
Airport Soekarno-Hatta International Airport (WIII)

Arrival

Time 2026-04-21 12:22
Airport Sultan Hasanuddin International Airport (WAAA)
Time Latitude Longitude Altitude Speed Heading
2026-04-21 09:56 -6.12334 106.64851 41 ft 0 kts 114°
2026-04-21 10:08 -6.12333 106.64850 41 ft 2 kts 114°
2026-04-21 10:09 -6.12327 106.64835 41 ft 2 kts 114°
2026-04-21 10:09 -6.12320 106.64820 41 ft 2 kts 113°
2026-04-21 10:09 -6.12314 106.64805 39 ft 2 kts 112°
2026-04-21 10:09 -6.12307 106.64789 38 ft 2 kts 88°
2026-04-21 10:10 -6.12318 106.64778 39 ft 2 kts 12°
2026-04-21 10:10 -6.12334 106.64777 41 ft 2 kts 352°
2026-04-21 10:10 -6.12342 106.64779 41 ft 0 kts 343°
2026-04-21 10:15 -6.12317 106.64775 41 ft 6 kts 359°
2026-04-21 10:16 -6.12257 106.64769 41 ft 11 kts 340°
2026-04-21 10:16 -6.12172 106.64737 41 ft 15 kts 340°
2026-04-21 10:16 -6.12062 106.64694 41 ft 19 kts 338°
2026-04-21 10:16 -6.12007 106.64608 42 ft 17 kts 253°
2026-04-21 10:17 -6.12056 106.64484 42 ft 21 kts 248°
2026-04-21 10:17 -6.12115 106.64336 42 ft 24 kts 248°
2026-04-21 10:17 -6.12182 106.64167 41 ft 27 kts 249°
2026-04-21 10:17 -6.12217 106.64080 42 ft 1 kts 248°
2026-04-21 10:18 -6.12224 106.64063 40 ft 5 kts 248°
2026-04-21 10:18 -6.12251 106.63997 41 ft 15 kts 248°
2026-04-21 10:18 -6.12227 106.63902 43 ft 0 kts 319°
2026-04-21 10:19 -6.12204 106.63889 44 ft 5 kts 351°
2026-04-21 10:19 -6.12140 106.63902 45 ft 14 kts 15°
2026-04-21 10:19 -6.12068 106.63959 43 ft 16 kts 65°
2026-04-21 10:19 -6.11992 106.64154 43 ft 56 kts 68°
2026-04-21 10:20 -6.11767 106.64719 46 ft 116 kts 68°
2026-04-21 10:20 -6.11398 106.65633 45 ft 164 kts 65°
2026-04-21 10:20 -6.10966 106.66708 473 ft 163 kts 66°
2026-04-21 10:20 -6.10547 106.67754 973 ft 161 kts 65°
2026-04-21 10:21 -6.10005 106.68767 1367 ft 177 kts 46°
2026-04-21 10:21 -6.09092 106.69705 1658 ft 202 kts 44°
2026-04-21 10:21 -6.08040 106.70734 2019 ft 225 kts 44°
2026-04-21 10:21 -6.06854 106.71912 2305 ft 251 kts 45°
2026-04-21 10:22 -6.05604 106.73179 2874 ft 259 kts 46°
2026-04-21 10:22 -6.04338 106.74478 3567 ft 261 kts 46°
2026-04-21 10:22 -6.03065 106.75793 4297 ft 264 kts 47°
2026-04-21 10:22 -6.01781 106.77123 5002 ft 267 kts 47°
2026-04-21 10:23 -6.00482 106.78470 5695 ft 270 kts 47°
2026-04-21 10:23 -5.99167 106.79835 6376 ft 273 kts 47°
2026-04-21 10:23 -5.97895 106.81258 7041 ft 274 kts 58°
2026-04-21 10:23 -5.97331 106.83062 7674 ft 275 kts 91°
2026-04-21 10:24 -5.97797 106.84926 8339 ft 278 kts 113°
2026-04-21 10:24 -5.98631 106.86691 9008 ft 281 kts 115°
2026-04-21 10:24 -5.99438 106.88463 9670 ft 284 kts 112°
2026-04-21 10:24 -6.00201 106.90313 10216 ft 290 kts 111°
2026-04-21 10:25 -6.00943 106.92259 10485 ft 307 kts 109°
2026-04-21 10:25 -6.01692 106.94329 10718 ft 323 kts 109°
2026-04-21 10:25 -6.02460 106.96512 10960 ft 337 kts 109°
2026-04-21 10:25 -6.03240 106.98761 11360 ft 344 kts 108°
2026-04-21 10:26 -6.04028 107.01044 11844 ft 348 kts 108°
2026-04-21 10:26 -6.04822 107.03354 12358 ft 350 kts 108°
2026-04-21 10:26 -6.05619 107.05678 12867 ft 353 kts 108°
2026-04-21 10:26 -6.06422 107.08019 13385 ft 356 kts 108°
2026-04-21 10:27 -6.07232 107.10385 13868 ft 359 kts 108°
2026-04-21 10:27 -6.08046 107.12766 14325 ft 362 kts 108°
2026-04-21 10:27 -6.08869 107.15169 14772 ft 365 kts 108°
2026-04-21 10:27 -6.09714 107.17589 15217 ft 368 kts 110°
2026-04-21 10:28 -6.10682 107.19948 15682 ft 371 kts 112°
2026-04-21 10:28 -6.11720 107.22335 16124 ft 375 kts 113°
2026-04-21 10:28 -6.12775 107.24738 16589 ft 377 kts 113°
2026-04-21 10:28 -6.13837 107.27160 17036 ft 380 kts 113°
2026-04-21 10:29 -6.14906 107.29604 17457 ft 383 kts 113°
2026-04-21 10:29 -6.15980 107.32064 17861 ft 386 kts 113°
2026-04-21 10:29 -6.17066 107.34550 18227 ft 389 kts 113°
2026-04-21 10:29 -6.18157 107.37051 18558 ft 392 kts 113°
2026-04-21 10:30 -6.18883 107.38715 18792 ft 393 kts 113°
2026-04-21 10:30 -6.19966 107.41200 19475 ft 383 kts 113°
2026-04-21 10:30 -6.21020 107.43617 20263 ft 372 kts 113°
2026-04-21 10:30 -6.22043 107.45963 21082 ft 362 kts 113°
2026-04-21 10:31 -6.23040 107.48252 21973 ft 352 kts 113°
2026-04-21 10:31 -6.24006 107.50470 22866 ft 341 kts 113°
2026-04-21 10:31 -6.24944 107.52622 23679 ft 332 kts 113°
2026-04-21 10:31 -6.25862 107.54731 24203 ft 329 kts 113°
2026-04-21 10:32 -6.26782 107.56844 24614 ft 331 kts 113°
2026-04-21 10:32 -6.27709 107.58973 24991 ft 333 kts 113°
2026-04-21 10:32 -6.28630 107.61089 25362 ft 336 kts 113°
2026-04-21 10:32 -6.29573 107.63256 25730 ft 339 kts 113°
2026-04-21 10:33 -6.30522 107.65435 26076 ft 342 kts 113°
2026-04-21 10:33 -6.31479 107.67633 26436 ft 344 kts 112°
2026-04-21 10:33 -6.32441 107.69846 26778 ft 347 kts 112°
2026-04-21 10:33 -6.33413 107.72079 27111 ft 350 kts 112°
2026-04-21 10:34 -6.34391 107.74327 27449 ft 352 kts 112°
2026-04-21 10:34 -6.35376 107.76592 27764 ft 355 kts 112°
2026-04-21 10:34 -6.36359 107.78852 28075 ft 357 kts 112°
2026-04-21 10:34 -6.37358 107.81149 28376 ft 359 kts 112°
2026-04-21 10:35 -6.38362 107.83458 28692 ft 362 kts 112°
2026-04-21 10:35 -6.39369 107.85773 28989 ft 364 kts 112°
2026-04-21 10:35 -6.40391 107.88125 29294 ft 366 kts 112°
2026-04-21 10:35 -6.41413 107.90475 29591 ft 368 kts 112°
2026-04-21 10:36 -6.42442 107.92844 29873 ft 371 kts 112°
2026-04-21 10:36 -6.43479 107.95232 30120 ft 373 kts 112°
2026-04-21 10:36 -6.44522 107.97630 30368 ft 375 kts 112°
2026-04-21 10:36 -6.45566 108.00036 30622 ft 377 kts 112°
2026-04-21 10:37 -6.46617 108.02455 30864 ft 378 kts 112°
2026-04-21 10:37 -6.47670 108.04883 31114 ft 380 kts 112°
2026-04-21 10:37 -6.48730 108.07325 31364 ft 382 kts 112°
2026-04-21 10:37 -6.49794 108.09780 31615 ft 383 kts 112°
2026-04-21 10:38 -6.50862 108.12241 31857 ft 385 kts 112°
2026-04-21 10:38 -6.51935 108.14716 32106 ft 387 kts 112°
2026-04-21 10:38 -6.53012 108.17201 32350 ft 388 kts 112°
2026-04-21 10:38 -6.54093 108.19694 32581 ft 390 kts 112°
2026-04-21 10:39 -6.55179 108.22198 32808 ft 392 kts 112°
2026-04-21 10:39 -6.56256 108.24684 33030 ft 393 kts 112°
2026-04-21 10:39 -6.57352 108.27213 33247 ft 395 kts 112°
2026-04-21 10:39 -6.58449 108.29746 33462 ft 397 kts 112°
2026-04-21 10:40 -6.59554 108.32296 33667 ft 398 kts 112°
2026-04-21 10:40 -6.60661 108.34853 33870 ft 400 kts 112°
2026-04-21 10:40 -6.61774 108.37424 34047 ft 401 kts 112°
2026-04-21 10:40 -6.62890 108.40001 34215 ft 403 kts 112°
2026-04-21 10:41 -6.64010 108.42588 34389 ft 404 kts 112°
2026-04-21 10:41 -6.65133 108.45181 34553 ft 405 kts 112°
2026-04-21 10:41 -6.66258 108.47782 34730 ft 406 kts 112°
2026-04-21 10:41 -6.67385 108.50388 34898 ft 407 kts 112°
2026-04-21 10:42 -6.68517 108.53003 35064 ft 408 kts 112°
2026-04-21 10:42 -6.69534 108.55668 35209 ft 408 kts 105°
2026-04-21 10:42 -6.70210 108.58443 35362 ft 409 kts 100°
2026-04-21 10:42 -6.70737 108.61256 35513 ft 409 kts 98°
2026-04-21 10:43 -6.71199 108.64086 35663 ft 410 kts 97°
2026-04-21 10:43 -6.71633 108.66929 35810 ft 411 kts 97°
2026-04-21 10:43 -6.72057 108.69743 35950 ft 412 kts 97°
2026-04-21 10:43 -6.72491 108.72597 36088 ft 413 kts 97°
2026-04-21 10:44 -6.72934 108.75456 36214 ft 414 kts 98°
2026-04-21 10:44 -6.73386 108.78329 36361 ft 415 kts 98°
2026-04-21 10:44 -6.73843 108.81202 36494 ft 416 kts 98°
2026-04-21 10:44 -6.74304 108.84081 36627 ft 417 kts 98°
2026-04-21 10:45 -6.74768 108.86971 36762 ft 418 kts 98°
2026-04-21 10:45 -6.75701 108.92794 36824 ft 426 kts 98°
2026-04-21 10:46 -6.76652 108.98742 36822 ft 435 kts 98°
2026-04-21 10:46 -6.77622 109.04817 36823 ft 444 kts 98°
2026-04-21 10:47 -6.78603 109.10964 36821 ft 452 kts 98°
2026-04-21 10:47 -6.79582 109.17237 36821 ft 454 kts 97°
2026-04-21 10:48 -6.80520 109.23516 36817 ft 453 kts 97°
2026-04-21 10:48 -6.81448 109.29780 36814 ft 453 kts 97°
2026-04-21 10:49 -6.82379 109.36050 36814 ft 453 kts 97°
2026-04-21 10:49 -6.83313 109.42320 36818 ft 453 kts 97°
2026-04-21 10:50 -6.84241 109.48547 36816 ft 453 kts 97°
2026-04-21 10:50 -6.85175 109.54822 36815 ft 453 kts 97°
2026-04-21 10:51 -6.86109 109.61104 36813 ft 453 kts 97°
2026-04-21 10:51 -6.87041 109.67383 36811 ft 453 kts 97°
2026-04-21 10:52 -6.87973 109.73662 36816 ft 453 kts 97°
2026-04-21 10:52 -6.88898 109.79901 36814 ft 453 kts 97°
2026-04-21 10:53 -6.89827 109.86176 36815 ft 453 kts 97°
2026-04-21 10:53 -6.90649 109.91727 36812 ft 453 kts 96°
2026-04-21 10:54 -6.91578 109.98011 36814 ft 454 kts 96°
2026-04-21 10:54 -6.92506 110.04292 36809 ft 453 kts 96°
2026-04-21 10:55 -6.93432 110.10569 36808 ft 453 kts 96°
2026-04-21 10:55 -6.94353 110.16813 36807 ft 453 kts 96°
2026-04-21 10:56 -6.95277 110.23090 36801 ft 453 kts 96°
2026-04-21 10:56 -6.96201 110.29369 36803 ft 453 kts 96°
2026-04-21 10:57 -6.97005 110.35665 36802 ft 452 kts 90°
2026-04-21 10:57 -6.96309 110.41893 36803 ft 447 kts 75°
2026-04-21 10:58 -6.94711 110.47947 36801 ft 447 kts 72°
2026-04-21 10:58 -6.92955 110.53910 36797 ft 447 kts 71°
2026-04-21 10:59 -6.91187 110.59909 36799 ft 447 kts 72°
2026-04-21 10:59 -6.89442 110.65921 36799 ft 447 kts 72°
2026-04-21 11:00 -6.87712 110.71927 36798 ft 447 kts 72°
2026-04-21 11:00 -6.85986 110.77927 36799 ft 447 kts 72°
2026-04-21 11:01 -6.84257 110.83935 36802 ft 446 kts 72°
2026-04-21 11:01 -6.82527 110.89936 36801 ft 446 kts 72°
2026-04-21 11:02 -6.79932 110.98931 36803 ft 446 kts 72°
2026-04-21 11:02 -6.78203 111.04920 36806 ft 446 kts 72°
2026-04-21 11:03 -6.76474 111.10907 36807 ft 445 kts 72°
2026-04-21 11:03 -6.74747 111.16887 36807 ft 444 kts 72°
2026-04-21 11:04 -6.73021 111.22857 36808 ft 443 kts 72°
2026-04-21 11:04 -6.71313 111.28765 36807 ft 443 kts 72°
2026-04-21 11:05 -6.69592 111.34713 36812 ft 443 kts 72°
2026-04-21 11:05 -6.67871 111.40656 36811 ft 442 kts 73°
2026-04-21 11:06 -6.66148 111.46604 36811 ft 442 kts 73°
2026-04-21 11:06 -6.64427 111.52546 36814 ft 442 kts 73°
2026-04-21 11:07 -6.62717 111.58444 36811 ft 442 kts 73°
2026-04-21 11:07 -6.60908 111.64354 36816 ft 442 kts 71°
2026-04-21 11:08 -6.58893 111.70196 36816 ft 442 kts 70°
2026-04-21 11:08 -6.56843 111.76017 36815 ft 441 kts 70°
2026-04-21 11:09 -6.54812 111.81841 36804 ft 441 kts 70°
2026-04-21 11:09 -6.52791 111.87680 36817 ft 442 kts 70°
2026-04-21 11:10 -6.50788 111.93484 36820 ft 442 kts 70°
2026-04-21 11:10 -6.48772 111.99322 36821 ft 442 kts 70°
2026-04-21 11:11 -6.46754 112.05157 36819 ft 442 kts 70°
2026-04-21 11:11 -6.44737 112.10991 36823 ft 442 kts 70°
2026-04-21 11:12 -6.42719 112.16822 36822 ft 441 kts 70°
2026-04-21 11:12 -6.40697 112.22661 36829 ft 441 kts 70°
2026-04-21 11:13 -6.38680 112.28485 36831 ft 441 kts 70°
2026-04-21 11:13 -6.36662 112.34310 36835 ft 441 kts 70°
2026-04-21 11:14 -6.34654 112.40103 36832 ft 441 kts 70°
2026-04-21 11:14 -6.32634 112.45928 36832 ft 441 kts 70°
2026-04-21 11:15 -6.30613 112.51753 36835 ft 441 kts 70°
2026-04-21 11:15 -6.28661 112.57552 36835 ft 440 kts 75°
2026-04-21 11:16 -6.27383 112.63612 36831 ft 440 kts 79°
2026-04-21 11:16 -6.26301 112.69640 36835 ft 440 kts 79°
2026-04-21 11:17 -6.25250 112.75706 36838 ft 440 kts 79°
2026-04-21 11:17 -6.24194 112.81757 36840 ft 440 kts 79°
2026-04-21 11:18 -6.23126 112.87813 36836 ft 439 kts 79°
2026-04-21 11:18 -6.22056 112.93857 36838 ft 439 kts 79°
2026-04-21 11:19 -6.20985 112.99899 36838 ft 439 kts 79°
2026-04-21 11:19 -6.19914 113.05940 36839 ft 439 kts 79°
2026-04-21 11:20 -6.18844 113.11974 36838 ft 439 kts 79°
2026-04-21 11:20 -6.17779 113.17978 36841 ft 439 kts 79°
2026-04-21 11:21 -6.16706 113.24018 36839 ft 438 kts 79°
2026-04-21 11:21 -6.15635 113.30042 36841 ft 438 kts 79°
2026-04-21 11:22 -6.14564 113.36067 36843 ft 438 kts 79°
2026-04-21 11:22 -6.13673 113.41075 36844 ft 438 kts 79°
2026-04-21 11:23 -6.12600 113.47101 36843 ft 438 kts 79°
2026-04-21 11:23 -6.11527 113.53126 36843 ft 438 kts 79°
2026-04-21 11:24 -6.10451 113.59158 36843 ft 438 kts 79°
2026-04-21 11:24 -6.09377 113.65180 36844 ft 438 kts 79°
2026-04-21 11:25 -6.08309 113.71161 36842 ft 438 kts 79°
2026-04-21 11:25 -6.07233 113.77186 36845 ft 438 kts 80°
2026-04-21 11:26 -6.06156 113.83210 36847 ft 438 kts 80°
2026-04-21 11:26 -6.05078 113.89238 36847 ft 438 kts 80°
2026-04-21 11:27 -6.03998 113.95270 36847 ft 439 kts 80°
2026-04-21 11:27 -6.02917 114.01309 36848 ft 439 kts 80°
2026-04-21 11:28 -6.01835 114.07346 36845 ft 439 kts 80°
2026-04-21 11:28 -6.00752 114.13383 36845 ft 439 kts 80°
2026-04-21 11:29 -5.99668 114.19422 36843 ft 439 kts 80°
2026-04-21 11:29 -5.98583 114.25468 36848 ft 440 kts 80°
2026-04-21 11:30 -5.97503 114.31476 36849 ft 440 kts 80°
2026-04-21 11:30 -5.96416 114.37521 36850 ft 440 kts 80°
2026-04-21 11:31 -5.95328 114.43569 36853 ft 440 kts 80°
2026-04-21 11:31 -5.94237 114.49627 36852 ft 440 kts 80°
2026-04-21 11:32 -5.93147 114.55680 36849 ft 440 kts 80°
2026-04-21 11:32 -5.92056 114.61730 36852 ft 440 kts 79°
2026-04-21 11:33 -5.90970 114.67751 36851 ft 440 kts 80°
2026-04-21 11:33 -5.89878 114.73800 36851 ft 440 kts 80°
2026-04-21 11:34 -5.88786 114.79848 36849 ft 440 kts 79°
2026-04-21 11:34 -5.87692 114.85899 36853 ft 440 kts 79°
2026-04-21 11:35 -5.86599 114.91944 36852 ft 440 kts 79°
2026-04-21 11:35 -5.85504 114.97997 36849 ft 440 kts 79°
2026-04-21 11:36 -5.84408 115.04048 36849 ft 440 kts 79°
2026-04-21 11:36 -5.83411 115.10113 36848 ft 440 kts 82°
2026-04-21 11:37 -5.82572 115.16158 36849 ft 440 kts 82°
2026-04-21 11:37 -5.81744 115.22251 36849 ft 440 kts 82°
2026-04-21 11:38 -5.80900 115.28343 36851 ft 440 kts 82°
2026-04-21 11:38 -5.80045 115.34426 36849 ft 440 kts 82°
2026-04-21 11:39 -5.79186 115.40511 36850 ft 440 kts 82°
2026-04-21 11:39 -5.78326 115.46594 36847 ft 440 kts 82°
2026-04-21 11:40 -5.77472 115.52641 36845 ft 440 kts 82°
2026-04-21 11:40 -5.76611 115.58731 36849 ft 440 kts 82°
2026-04-21 11:41 -5.75750 115.64820 36850 ft 440 kts 82°
2026-04-21 11:41 -5.74887 115.70912 36851 ft 440 kts 82°
2026-04-21 11:42 -5.74024 115.77002 36851 ft 440 kts 82°
2026-04-21 11:42 -5.73161 115.83090 36849 ft 441 kts 82°
2026-04-21 11:43 -5.72302 115.89147 36849 ft 441 kts 82°
2026-04-21 11:43 -5.71436 115.95245 36850 ft 441 kts 82°
2026-04-21 11:44 -5.70569 116.01342 36848 ft 441 kts 82°
2026-04-21 11:44 -5.69702 116.07441 36850 ft 441 kts 82°
2026-04-21 11:45 -5.68834 116.13541 36851 ft 441 kts 82°
2026-04-21 11:45 -5.67964 116.19648 36850 ft 442 kts 82°
2026-04-21 11:46 -5.67099 116.25715 36851 ft 442 kts 82°
2026-04-21 11:46 -5.66227 116.31826 36854 ft 442 kts 82°
2026-04-21 11:47 -5.65355 116.37937 36851 ft 442 kts 82°
2026-04-21 11:47 -5.64482 116.44047 36851 ft 442 kts 82°
2026-04-21 11:48 -5.63607 116.50162 36851 ft 442 kts 82°
2026-04-21 11:48 -5.62641 116.56260 36850 ft 442 kts 79°
2026-04-21 11:49 -5.61441 116.62322 36849 ft 442 kts 79°
2026-04-21 11:49 -5.60232 116.68382 36851 ft 442 kts 79°
2026-04-21 11:50 -5.59036 116.74401 36852 ft 442 kts 79°
2026-04-21 11:50 -5.57836 116.80454 36850 ft 442 kts 79°
2026-04-21 11:51 -5.56634 116.86508 36852 ft 442 kts 79°
2026-04-21 11:51 -5.55432 116.92569 36851 ft 442 kts 79°
2026-04-21 11:52 -5.54228 116.98628 36854 ft 442 kts 79°
2026-04-21 11:52 -5.53024 117.04689 36853 ft 442 kts 79°
2026-04-21 11:53 -5.52089 117.10743 36857 ft 442 kts 83°
2026-04-21 11:53 -5.51340 117.16860 36857 ft 442 kts 83°
2026-04-21 11:54 -5.50583 117.22989 36857 ft 442 kts 83°
2026-04-21 11:54 -5.49816 117.29151 36857 ft 446 kts 83°
2026-04-21 11:55 -5.49041 117.35351 36859 ft 447 kts 83°
2026-04-21 11:55 -5.48398 117.40492 36858 ft 447 kts 83°
2026-04-21 11:56 -5.48002 117.43649 36860 ft 447 kts 83°
2026-04-21 11:56 -5.47226 117.49848 36860 ft 445 kts 83°
2026-04-21 11:57 -5.46456 117.55988 36861 ft 442 kts 82°
2026-04-21 11:57 -5.45687 117.62111 36860 ft 442 kts 82°
2026-04-21 11:58 -5.44923 117.68195 36860 ft 442 kts 82°
2026-04-21 11:58 -5.44152 117.74321 36857 ft 442 kts 82°
2026-04-21 11:59 -5.43382 117.80445 36862 ft 442 kts 82°
2026-04-21 11:59 -5.42610 117.86570 36859 ft 442 kts 82°
2026-04-21 12:00 -5.42223 117.89642 36738 ft 446 kts 82°
2026-04-21 12:00 -5.41833 117.92732 36002 ft 446 kts 82°
2026-04-21 12:00 -5.41441 117.95837 34905 ft 451 kts 82°
2026-04-21 12:00 -5.41046 117.98972 33809 ft 455 kts 83°
2026-04-21 12:01 -5.40646 118.02136 32572 ft 458 kts 82°
2026-04-21 12:01 -5.40250 118.05277 31359 ft 461 kts 82°
2026-04-21 12:01 -5.39846 118.08479 30121 ft 464 kts 82°
2026-04-21 12:01 -5.39441 118.11703 28729 ft 467 kts 83°
2026-04-21 12:02 -5.39038 118.14930 27535 ft 464 kts 83°
2026-04-21 12:02 -5.38244 118.21281 25514 ft 452 kts 83°
2026-04-21 12:02 -5.37856 118.24387 24571 ft 446 kts 83°
2026-04-21 12:03 -5.37472 118.27459 23656 ft 440 kts 83°
2026-04-21 12:03 -5.37093 118.30485 22622 ft 433 kts 83°
2026-04-21 12:03 -5.36721 118.33460 21596 ft 427 kts 83°
2026-04-21 12:03 -5.36354 118.36391 20623 ft 420 kts 83°
2026-04-21 12:04 -5.35993 118.39274 19659 ft 413 kts 83°
2026-04-21 12:04 -5.35642 118.42073 18890 ft 404 kts 83°
2026-04-21 12:04 -5.35297 118.44825 18524 ft 393 kts 83°
2026-04-21 12:04 -5.34960 118.47512 18199 ft 382 kts 82°
2026-04-21 12:05 -5.34631 118.50137 17842 ft 375 kts 82°
2026-04-21 12:05 -5.34305 118.52728 17516 ft 374 kts 82°
2026-04-21 12:05 -5.33980 118.55313 17201 ft 373 kts 82°
2026-04-21 12:05 -5.33656 118.57895 16884 ft 371 kts 82°
2026-04-21 12:06 -5.33334 118.60460 16573 ft 369 kts 82°
2026-04-21 12:06 -5.33013 118.63010 16258 ft 368 kts 82°
2026-04-21 12:06 -5.32694 118.65550 15950 ft 366 kts 82°
2026-04-21 12:06 -5.32376 118.68078 15642 ft 364 kts 82°
2026-04-21 12:07 -5.32060 118.70586 15335 ft 362 kts 82°
2026-04-21 12:07 -5.31745 118.73088 15037 ft 360 kts 82°
2026-04-21 12:07 -5.31432 118.75572 14725 ft 358 kts 82°
2026-04-21 12:07 -5.31121 118.78045 14421 ft 357 kts 82°
2026-04-21 12:08 -5.30810 118.80510 14117 ft 355 kts 82°
2026-04-21 12:08 -5.30502 118.82960 13821 ft 353 kts 82°
2026-04-21 12:08 -5.30198 118.85367 13605 ft 339 kts 82°
2026-04-21 12:08 -5.29913 118.87633 13456 ft 319 kts 82°
2026-04-21 12:09 -5.29636 118.89844 13244 ft 321 kts 83°
2026-04-21 12:09 -5.29493 118.92089 12830 ft 322 kts 88°
2026-04-21 12:09 -5.29467 118.94335 12316 ft 321 kts 89°
2026-04-21 12:09 -5.29464 118.96529 11918 ft 316 kts 89°
2026-04-21 12:10 -5.29462 118.98731 11531 ft 314 kts 89°
2026-04-21 12:10 -5.29458 119.00919 11135 ft 313 kts 89°
2026-04-21 12:10 -5.29453 119.03094 10757 ft 311 kts 89°
2026-04-21 12:10 -5.29446 119.05255 10372 ft 309 kts 89°
2026-04-21 12:11 -5.29439 119.07398 9993 ft 306 kts 89°
2026-04-21 12:11 -5.29431 119.09508 9752 ft 296 kts 89°
2026-04-21 12:11 -5.29424 119.11526 9487 ft 281 kts 89°
2026-04-21 12:11 -5.29417 119.13427 9247 ft 264 kts 89°
2026-04-21 12:12 -5.29410 119.15217 9068 ft 249 kts 89°
2026-04-21 12:12 -5.29403 119.16906 8830 ft 237 kts 89°
2026-04-21 12:12 -5.29397 119.18541 8468 ft 233 kts 89°
2026-04-21 12:12 -5.29390 119.20160 8048 ft 231 kts 89°
2026-04-21 12:13 -5.29383 119.21744 7645 ft 229 kts 89°
2026-04-21 12:13 -5.29377 119.23347 7180 ft 230 kts 89°
2026-04-21 12:13 -5.29370 119.24946 6813 ft 227 kts 89°
2026-04-21 12:13 -5.29364 119.26523 6553 ft 226 kts 89°
2026-04-21 12:14 -5.29357 119.28102 6271 ft 226 kts 89°
2026-04-21 12:14 -5.29351 119.29673 5972 ft 225 kts 89°
2026-04-21 12:14 -5.29344 119.31238 5697 ft 223 kts 89°
2026-04-21 12:14 -5.29337 119.32797 5423 ft 223 kts 89°
2026-04-21 12:15 -5.29330 119.34349 5141 ft 222 kts 89°
2026-04-21 12:15 -5.29326 119.35371 4960 ft 221 kts 89°
2026-04-21 12:15 -5.29317 119.37433 4594 ft 220 kts 90°
2026-04-21 12:15 -5.29313 119.38451 4402 ft 220 kts 90°
2026-04-21 12:16 -5.29306 119.39982 4126 ft 219 kts 89°
2026-04-21 12:16 -5.29160 119.41492 4009 ft 217 kts 76°
2026-04-21 12:16 -5.28558 119.42841 4027 ft 205 kts 54°
2026-04-21 12:16 -5.27573 119.43804 3910 ft 196 kts 35°
2026-04-21 12:17 -5.26396 119.44494 3587 ft 196 kts 30°
2026-04-21 12:17 -5.25200 119.45164 3257 ft 197 kts 30°
2026-04-21 12:17 -5.24010 119.45844 2945 ft 196 kts 31°
2026-04-21 12:17 -5.22853 119.46508 2790 ft 187 kts 31°
2026-04-21 12:18 -5.21763 119.47136 2684 ft 174 kts 31°
2026-04-21 12:18 -5.20762 119.47717 2549 ft 163 kts 31°
2026-04-21 12:18 -5.19802 119.48277 2345 ft 155 kts 31°
2026-04-21 12:18 -5.18884 119.48809 2156 ft 151 kts 31°
2026-04-21 12:19 -5.17993 119.49324 1990 ft 142 kts 31°
2026-04-21 12:19 -5.17164 119.49804 1788 ft 135 kts 31°
2026-04-21 12:19 -5.16353 119.50273 1617 ft 135 kts 31°
2026-04-21 12:19 -5.15541 119.50744 1432 ft 135 kts 31°
2026-04-21 12:20 -5.14727 119.51215 1265 ft 135 kts 31°
2026-04-21 12:20 -5.13916 119.51684 1098 ft 134 kts 31°
2026-04-21 12:20 -5.13113 119.52149 927 ft 133 kts 31°
2026-04-21 12:20 -5.12311 119.52614 759 ft 133 kts 31°
2026-04-21 12:21 -5.11514 119.53072 570 ft 131 kts 32°
2026-04-21 12:21 -5.10735 119.53537 418 ft 132 kts 32°
2026-04-21 12:21 -5.09942 119.53995 250 ft 131 kts 30°
2026-04-21 12:21 -5.09152 119.54447 72 ft 130 kts 31°
2026-04-21 12:22 -5.08437 119.54862 44 ft 98 kts 30°
2026-04-21 12:22 -5.07955 119.55139 44 ft 61 kts 30°
2026-04-21 12:22 -5.07788 119.55236 45 ft 16 kts 29°
2026-04-21 12:22 -5.07708 119.55230 45 ft 12 kts 319°
2026-04-21 12:23 -5.07671 119.55173 44 ft 8 kts 299°
2026-04-21 12:23 -5.07644 119.55123 44 ft 8 kts 299°
2026-04-21 12:23 -5.07615 119.55073 44 ft 8 kts 300°
2026-04-21 12:23 -5.07587 119.55023 44 ft 9 kts 296°
2026-04-21 12:24 -5.07590 119.54947 44 ft 14 kts 260°
2026-04-21 12:24 -5.07668 119.54874 44 ft 19 kts 210°
2026-04-21 12:24 -5.07772 119.54813 44 ft 8 kts 210°
2026-04-21 12:24 -5.07778 119.54774 44 ft 7 kts 298°
2026-04-21 12:25 -5.07757 119.54737 44 ft 0 kts 300°
2026-04-21 12:25 -5.07754 119.54732 42 ft 0 kts 300°